Weather History for South Lake Tahoe, CA

Change the Weather History Date:

Thursday, April 5, 2012

  Actual Average Record
Temperature  
Mean Temperature 27 °F 38 °F  
Max Temperature 35 °F 52 °F 66 °F (1985)
Min Temperature 19 °F 25 °F 15 °F (2003)
Degree Days  
Heating Degree Days 38 27  
Month to date heating degree days 150 135  
Since 1 July heating degree days 5687 6287  
Cooling Degree Days 0 0  
Month to date cooling degree days 0 0  
Year to date cooling degree days 0 0  
Moisture  
Dew Point 15 °F    
Average Humidity 53    
Maximum Humidity 74    
Minimum Humidity 32    
Precipitation  
Precipitation 0.01 in - 1.03 in (1980)
Month to date precipitation 0.08  
Year to date precipitation 8.91  
Sea Level Pressure  
Sea Level Pressure 29.93 in    
Wind  
Wind Speed 4 mph (SSW)    
Max Wind Speed 17 mph    
Max Gust Speed 22 mph    
Visibility 6 miles    
Events Snow    
T = Trace of Precipitation, MM = Missing Value Source: NWS Daily Summary

Daily Weather History Graph

Daily Weather History Graph

Search for Another Location

Airport:

Trip Planner

Search our weather history database for the weather conditions in past years. The results will help you decide how hot, cold, wet, or windy it might be!

Date:

Astronomy

Apr. 05, 2012 Rise Set
Actual Time 6:37 AM PDT 7:28 PM PDT
Civil Twilight 6:10 AM PDT 7:55 PM PDT
Nautical Twilight 5:38 AM PDT 8:27 PM PDT
Astronomical Twilight 5:05 AM PDT 9:00 PM PDT
Moon 6:39 PM PDT (4/5) 5:36 AM PDT (4/5)
Length of Visible Light 13h 44m
Length of Day
12h 50m
Waxing Gibbous, 98% of the Moon is Illuminated
Apr 5
Waxing Gibbous
Apr 6
Full
Apr 13
Last Quarter
Apr 21
New
Apr 29
First Quarter

Hourly Weather History & Observations

Time (PDT) Temp. Windchill Dew Point Humidity Pressure Visibility Wind Dir Wind Speed Gust Speed Precip Events Conditions
12:53 AM 26.1 °F 18.4 °F 14.0 °F 60% 29.95 in 10.0 mi SSW 6.9 mph - N/A   Clear
1:53 AM 26.1 °F 19.4 °F 12.9 °F 58% 29.94 in 10.0 mi South 5.8 mph - N/A   Clear
2:53 AM 24.1 °F - 12.0 °F 60% 29.93 in 10.0 mi Calm Calm - N/A   Clear
3:53 AM 24.1 °F 19.7 °F 12.0 °F 60% 29.92 in 10.0 mi SSW 3.5 mph - N/A   Clear
4:23 AM 24.8 °F - 12.2 °F 59% 29.91 in 10.0 mi Calm Calm - N/A   Mostly Cloudy
4:31 AM 23.0 °F - 12.2 °F 63% 29.91 in 10.0 mi Calm Calm - N/A   Scattered Clouds
4:53 AM 23.0 °F - 12.0 °F 63% 29.91 in 10.0 mi Calm Calm - N/A   Partly Cloudy
5:53 AM 21.0 °F - 12.0 °F 68% 29.93 in 10.0 mi Calm Calm - N/A   Clear
6:53 AM 19.9 °F - 12.0 °F 71% 29.94 in 10.0 mi Calm Calm - N/A   Clear
7:53 AM 24.1 °F - 10.0 °F 55% 29.93 in 10.0 mi Calm Calm - N/A   Clear
8:53 AM 28.9 °F 19.8 °F 8.1 °F 41% 29.91 in 10.0 mi South 10.4 mph - N/A   Scattered Clouds
9:53 AM 30.9 °F 23.5 °F 7.0 °F 37% 29.91 in 10.0 mi South 8.1 mph 16.1 mph N/A   Mostly Cloudy
10:53 AM 33.1 °F 23.9 °F 6.1 °F 32% 29.90 in 10.0 mi South 12.7 mph 21.9 mph N/A   Scattered Clouds
11:53 AM 33.1 °F 23.9 °F 9.0 °F 37% 29.89 in 10.0 mi SSW 12.7 mph 21.9 mph N/A   Mostly Cloudy
12:53 PM 32.0 °F - 9.0 °F 38% 29.89 in 10.0 mi Calm Calm - N/A   Scattered Clouds
1:53 PM 32.0 °F 25.6 °F 10.9 °F 42% 29.89 in 10.0 mi Variable 6.9 mph - N/A   Overcast
2:53 PM 34.0 °F 27.2 °F 10.9 °F 38% 29.89 in 10.0 mi SW 8.1 mph 19.6 mph N/A   Mostly Cloudy
3:39 PM 30.2 °F 25.4 °F 14.0 °F 51% 29.88 in 1.2 mi Variable 4.6 mph 16.1 mph 0.00 in Snow Light Snow
3:42 PM 28.4 °F 24.6 °F 17.6 °F 64% 29.89 in 0.8 mi Variable 3.5 mph 16.1 mph 0.00 in Snow Light Snow
3:49 PM 30.2 °F - 19.4 °F 64% 29.88 in 1.0 mi Calm Calm - 0.00 in Snow Light Snow
3:53 PM 32.0 °F 26.4 °F 18.0 °F 56% 29.91 in 4.0 mi Variable 5.8 mph - 0.00 in Snow Light Snow
3:57 PM 32.0 °F 25.6 °F 15.8 °F 51% 29.88 in 8.0 mi Variable 6.9 mph - 0.00 in   Mostly Cloudy
4:37 PM 30.2 °F 21.9 °F 15.8 °F 55% 29.91 in 2.5 mi SSW 9.2 mph - 0.00 in Snow Light Snow
4:44 PM 28.4 °F 19.7 °F 17.6 °F 64% 29.91 in 1.0 mi SSW 9.2 mph 17.3 mph 0.00 in Snow Light Snow
4:51 PM 28.4 °F 23.3 °F 17.6 °F 64% 29.91 in 2.0 mi Variable 4.6 mph - 0.00 in Snow Light Snow
4:53 PM 28.0 °F 24.2 °F 18.0 °F 66% 29.96 in 1.2 mi Variable 3.5 mph - 0.00 in Snow Light Snow
5:01 PM 26.6 °F - 19.4 °F 74% 29.91 in 0.5 mi Calm Calm - 0.00 in Snow Snow
5:17 PM 26.6 °F - 19.4 °F 74% 29.92 in 0.2 mi Calm Calm - 0.00 in Snow Heavy Snow
5:35 PM 26.6 °F 19.1 °F 21.2 °F 80% 29.92 in 1.8 mi South 6.9 mph - 0.01 in Snow Light Snow
5:40 PM 28.4 °F 19.7 °F 19.4 °F 69% 29.92 in 4.0 mi South 9.2 mph - 0.01 in Snow Light Snow
5:44 PM 28.4 °F 20.4 °F 19.4 °F 69% 29.92 in 8.0 mi South 8.1 mph - 0.01 in   Overcast
5:53 PM 27.0 °F 18.7 °F 18.0 °F 69% 29.99 in 10.0 mi South 8.1 mph - 0.01 in   Overcast
6:13 PM 26.6 °F - 15.8 °F 64% 29.93 in 2.5 mi Calm Calm - 0.00 in Snow Light Snow
6:19 PM 26.6 °F - 17.6 °F 69% 29.94 in 1.0 mi Calm Calm - 0.00 in Snow Light Snow
6:27 PM 24.8 °F 20.5 °F 19.4 °F 80% 29.93 in 0.2 mi SW 3.5 mph - 0.00 in Snow Heavy Snow
6:41 PM 24.8 °F - 17.6 °F 74% 29.94 in 1.0 mi Calm Calm - 0.00 in Snow Light Snow
6:44 PM 24.8 °F - 17.6 °F 74% 29.94 in 3.0 mi Calm Calm - 0.00 in Snow Light Snow
6:47 PM 26.6 °F - 15.8 °F 64% 29.94 in 6.0 mi Calm Calm - 0.00 in Snow Light Snow
6:53 PM 26.1 °F - 17.1 °F 69% 30.01 in 9.0 mi Calm Calm - 0.00 in   Overcast
7:53 PM 25.0 °F - 15.1 °F 66% 30.01 in 10.0 mi Calm Calm - 0.00 in   Mostly Cloudy
7:58 PM 24.8 °F 20.5 °F 15.8 °F 69% 29.96 in 4.0 mi SW 3.5 mph - 0.00 in Snow Light Snow
8:03 PM 24.8 °F 17.9 °F 15.8 °F 69% 29.95 in 1.8 mi SSW 5.8 mph - 0.00 in Snow Light Snow
8:10 PM 24.8 °F 16.9 °F 15.8 °F 69% 29.95 in 3.0 mi South 6.9 mph - 0.00 in Snow Light Snow
8:15 PM 24.8 °F 20.5 °F 15.8 °F 69% 29.96 in 8.0 mi SSW 3.5 mph - 0.00 in   Overcast
8:53 PM 24.1 °F - 17.1 °F 75% 30.01 in 10.0 mi Calm Calm - 0.00 in   Partly Cloudy
9:53 PM 24.1 °F - 17.1 °F 75% 30.03 in 10.0 mi Calm Calm - N/A   Mostly Cloudy
10:53 PM 23.0 °F - 14.0 °F 68% 30.04 in 10.0 mi Calm Calm - N/A   Mostly Cloudy
11:53 PM 21.0 °F 16.2 °F 12.9 °F 71% 30.05 in 10.0 mi South 3.5 mph - N/A   Clear